Regional Weather Roundup
Issued by NWS Wakefield, VA

Home | Current Version | Previous Version | Text Only | Print | Product List | Glossary On
Versions: 1 2 3 4 5 6 7 8 9 10 11 12 13 14 15 16 17 18 19 20 21 22 23 24 25 26 27
000
ASUS41 KAKQ 181110
RWRAKQ

REGIONAL WEATHER ROUNDUP
NATIONAL WEATHER SERVICE WAKEFIELD VA
700 AM EDT FRI APR 18 2014

Note: "fair" indicates few or no clouds below 12,000 feet with no
significant weather and/or obstructions to visibility. * = Denotes
station may not report precipitation (e.g., rain,snow,etc.),
thunder or fog.

VAZ042-051-052>054-056-181200-
NORTHERN VIRGINIA

CITY           SKY/WX    TMP DP  RH WIND       PRES   REMARKS
WASH NATIONAL  MOCLDY    40  30  67 E6        30.51F
DULLES         MOCLDY    33  31  92 NE5       30.49F
FORT BELVOIR   PTCLDY    34  32  93 CALM      30.51F
QUANTICO       MOCLDY    40  32  73 E9        30.51F
FREDERICKSBRG* MOCLDY    37  36  93 CALM      30.50S
STAFFORD*      MOCLDY    32  32 100 CALM      30.53F
WARRENTON      PTCLDY    32  32 100 NE3       30.49S
CULPEPER*      CLOUDY    34  34 100 CALM      30.49F FOG
MANASSAS*      PTCLDY    32  32 100 CALM      30.50F
LEESBURG*      MOCLDY    34  32  93 CALM      30.50F
WINCHESTER     PTCLDY    32  32 100 CALM      30.46S
$$

VAZ048-049-060>072-079>083-181200-
CENTRAL AND SOUTH CENTRAL VIRGINIA...AND NORTH CENTRAL NORTH CAROLINA

CITY           SKY/WX    TMP DP  RH WIND       PRES   REMARKS
RICHMOND       CLOUDY    36  32  85 N6        30.48S
CHESTERFIELD*  NOT AVBL
HANOVER        MOCLDY    33  31  92 CALM      30.50S FOG
TAPPAHANNOCK*  CLOUDY    39  32  77 NE3       30.49S
CHARLOTTSVILLE CLOUDY    39  33  79 VRB3      30.46F
ORANGE*        MOCLDY    32  32 100 CALM      30.49S FOG
LOUISA*        MOCLDY    30  28  93 CALM      30.46S FOG
FARMVILLE*     PTCLDY    36  34  93 CALM      30.45S
SOUTH HILL*    PTCLDY    36  36 100 N7        30.50R
ROANOKE RAPIDS MOSUNNY   37  37 100 N7        30.44S
RALEIGH        MOCLDY    39  35  86 N6        30.43S
$$

VAZ088>098-181200-
SOUTHEAST VIRGINIA

CITY           SKY/WX    TMP DP  RH WIND       PRES   REMARKS
NORFOLK        CLOUDY    43  37  79 NE14      30.45S
VIRGINIA BEACH CLOUDY    43  37  79 N10       30.45R
NORFOLK NAVAL  CLOUDY    44  36  73 NE16      30.47S
WEST POINT*    CLOUDY    42  34  72 N3        30.50S
NEWPORT NEWS   CLOUDY    46  36  68 NE9       30.46S
LANGLEY AFB    CLOUDY    43  38  82 NE13      30.47S
FORT EUSTIS    CLOUDY    43  37  79 N6        30.45S
WILLIAMSBURG*    N/A     45  37  76 NE3       30.48S
FRANKLIN*      MOCLDY    43  37  81 NE7       30.45S
WAKEFIELD      MOCLDY    41  35  79 NE3       30.46S
$$

VAZ020-022-025-037-045-181200-
WESTERN AND SOUTHWEST VIRGINIA

CITY           SKY/WX    TMP DP  RH WIND       PRES   REMARKS
STAUNTON*      MOCLDY    32  29  90 CALM      30.45R
HOT SPRINGS VA   N/A     34  28  80 SW6       30.38S
LYNCHBURG      CLOUDY    42  34  73 CALM      30.46R
DANVILLE       MOCLDY    38  34  85 NE5       30.46R
MARTINSVILLE   CLOUDY    40  37  90 NE5       30.47S
ROANOKE        CLOUDY    39  33  79 SE8       30.46R
BLACKSBURG     CLOUDY    36  36 100 CALM      30.43R
DUBLIN*        CLOUDY    34  31  90 CALM      30.42R
MARION*        CLOUDY    36  26  66 E5        30.39S
HILLSVILLE*    CLOUDY    36  27  69 CALM      30.41S
RICHLANDS*     CLOUDY    48  10  21 CALM      30.33R
WISE*          CLOUDY    46  21  36 W5        30.35R
ABINGDON*      CLOUDY    44  26  49 E8        30.36R
$$

MDZ021>025-VAZ099-100-181200-
SOUTHERN MARYLAND AND THE DELMARVA PENINSULA

CITY           SKY/WX    TMP DP  RH WIND       PRES   REMARKS
PATUXENT RIVER MOCLDY    39  32  76 NE7       30.49F
BAY BRIDGE APT CLOUDY    39  32  75 NE3       30.52R
LEONARDTOWN    CLOUDY    37  32  81 CALM      30.51S
DOVER          CLOUDY    39  34  81 NE6       30.52R
GEORGETOWN     CLOUDY    42  33  70 NE6       30.52R
EASTON         CLOUDY    41  34  75 E3        30.55R
CAMBRIDGE      PTCLDY    41  32  70 E5        30.49F
SALISBURY      CLOUDY    40  33  76 NE5       30.50R
OCEAN CITY     CLOUDY    42  34  73 N12       30.50R
WALLOPS ISLAND CLOUDY    39  34  82 N7        30.49R
ACCOMACK*      CLOUDY    39  32  75 N6        30.48S
$$

NCZ012>017-030>032-181200-
EASTERN NORTH CAROLINA

CITY           SKY/WX    TMP DP  RH WIND       PRES   REMARKS
ELIZABETH CITY CLOUDY    44  39  82 N13       30.44R
AHOSKIE*       PTCLDY    38  36  92 N6        30.44S
EDENTON*       CLOUDY    43  40  88 NE9G17    30.42S
CURRITUCK*     CLOUDY    45  39  81 N15       30.45S
KILL DEVIL HLS CLOUDY    46  43  91 N13G21    30.40S
MANTEO         CLOUDY    46  43  91 NE18      30.42R
CAPE HATTERAS  CLOUDY    48  47  96 NE13G28   30.36S
GOLDSBORO      PTCLDY    41  40  97 NE6       30.40R
WASHINGTON     CLOUDY    42  38  84 NE7       30.40S
GREENVILLE     PTCLDY    39  37  93 N3        30.42R
NEW BERN       CLOUDY    45  41  86 NE12      30.40S
WILMINGTON     MOCLDY    45  40  82 N9        30.35S
$$

VAZ048-181200-
ELSEWHERE

CITY           SKY/WX    TMP DP  RH WIND       PRES   REMARKS
HARRISBURG PA  CLOUDY    38  28  67 SE5       30.52R
BALTIMORE      CLOUDY    38  29  70 CALM      30.50F
ANNAPOLIS      CLOUDY    40  32  73 NE6       30.52R
ANDREWS AFB    CLOUDY    37  30  74 NE8       30.49F
WILMINGTON DE  CLOUDY    39  29  67 SE5       30.54R
PHILADELPHIA   CLOUDY    39  27  62 E7        30.54R
WILDWOOD NJ*   CLOUDY    39  30  70 NE5       30.52R
ATLANTIC CITY  CLOUDY    39  32  76 NE6       30.52R
HENDERSON NC   MOCLDY    37  35  95 NE3       30.44R FOG
GREENSBORO     CLOUDY    40  35  83 NE10      30.42R
ROCKY MOUNT      N/A    N/A N/A N/A MISG      30.43R
FAYETTEVILLE   PTCLDY    42  38  85 NE12      30.39R
CHARLOTTE      CLOUDY    46  40  79 NE8       30.40R
$$

VAZ100-181200-
MARINE

STATION/POSITION TIME  TEMP    WIND        PRES    WAVE   SWELL
                       AIR SEA DIR/SP/G            HT/PER HT/PER
                 (UTC) (F)     (DEG/KT/KT) (MB)    (FT/S) (FT/S)
44066 TX TWR #4  1100   40 44   50/ 17/ 21 1030.7F   8/ 8   5/ 8
CAPE MAY NJ      1100   41 51   60/  5/ 11 1033.0R
LEWES DE         1100   42 47   50/ 12/ 14 1032.6R
15NM E FENWICK I 1100   42 45              1032.4R   7/11
OCEAN-CITY-INLET 1100   42 45   30/ 11/ 14 1032.2R
WACHAPREAGUE VA  1100   40 51  360/  6/  7 1031.6S
THOMAS POINT MD  1100   40 52   50/  7/  8 1033.7F
COVE POINT MD    1100   40      50/  9/ 12 1032.5F
SOLOMONS ISLAND  1100      52                N/A
BISHOPS HEAD MD  1100   40 51   30/ 11/ 15 1032.2S
PINEY POINT MD   1100           40/  5/  6   N/A
POTOMAC MD       1100   41      40/ 10/ 12 1031.7S
CAMBRIDGE MD     1100   40 55   30/  7/ 10 1032.5S
LEWISETTA VA     1100   41 52   20/  5/  7 1032.3R
RAPPAHANNOCK LGT 1100           30/ 13/ 15 1032.3R
YORK RVR RNG VA  1100   43      40/ 14/ 19 1030.8F
YORKTOWN VA      1100   43 54   40/ 12/ 14 1031.3F
JAMESTOWN VA     1100   41      50/  6/  8   N/A
DOMINION TERM VA 1100   44      60/  6/ 11 1031.2F
KIPTOPEKE VA     1100      52   20/  5/  8   N/A
CHES BAY BRIDGE  1100   42 52   10/ 16/ 17 1031.1F
CAPE HENRY VA    1100   42      10/ 15/ 17   N/A
CHESAPEAKE LGHT  1000   44      10/ 18/ 19 1031.0R
WILLOUBY STN VA  1100   42      30/ 14/ 16 1030.3F
S CRANEY ISL VA  1100          360/ 12/ 17 1031.3S
CAPE HENRY BUOY  1100      47                N/A     6/ 9   2/12
1ST LANDING BUOY 1100      45                N/A     6/11   5/11
64NM E OF VA BCH 1100   47 49  360/ 17/ 21 1029.3R  10/10   8/10
DUCK PIER NC     1100   45 51   10/ 17/ 21 1029.1S
44100 DUCK FRF   1100      47                N/A     8/10   3/11
44056 DUCK FRF   1000      49                N/A     7/10   3/11
OREGON INLET NC  1100   46 51  350/ 16/ 21 1029.3R
HATTERAS NC      1100   49 55   10/ 23/ 26 1027.7F
CAPE LOOKOUT NC  1000   50      10/ 16/ 20 1027.1R
FRYING PAN SHLS  1100   57 64   50/ 23/ 27 1025.0R   8/ 7   3/10
$$



USA.gov is the U.S. government's official web portal to all federal, state and local government web resources and services.